Back to catalog

STARLINK-32924

AliveCommunicationsVLEO
NORAD 63092·PAYLOAD·🇺🇸 United States

Launched Feb 23, 2025 from Vandenberg Space Force Base

Loading…

Next Passes (next 24 hours)

TLE

FreshSource: CelesTrak SupGP

Epoch: Sep 14, 2026, 23:08 UTC

1 63092C 25037R   26257.96437500  .00005247  00000+0  18251-3 0  2577
2 63092  70.0013 235.4585 0003301 266.7897 247.5373 15.29580523    19

Track STARLINK-32924 in real time with AllMySat

Download on the App Store